N1024H KDRP-KMEM

Flight info

Callsign N1024H
Flight time 0h 21m
Altitude 7000
Route KMEM MCVEY KLIT
Aircraft SR22/L-SGRY/C

Departure

Time 2026-05-04 00:03
Airport Delta Regional Airport (KDRP)

Arrival

Time 2026-05-04 00:24
Airport Memphis International Airport (KMEM)
Time Latitude Longitude Altitude Speed Heading
2026-05-03 23:47 35.12457 -90.82453 233 ft 0 kts 92°
2026-05-03 23:53 35.12458 -90.82443 233 ft 7 kts 66°
2026-05-03 23:53 35.12484 -90.82464 233 ft 7 kts 271°
2026-05-03 23:54 35.12454 -90.82512 232 ft 11 kts 158°
2026-05-03 23:54 35.12271 -90.82513 232 ft 18 kts 183°
2026-05-03 23:54 35.12119 -90.82516 232 ft 24 kts 180°
2026-05-03 23:54 35.11962 -90.82519 230 ft 21 kts 181°
2026-05-03 23:55 35.11818 -90.82520 229 ft 19 kts 180°
2026-05-03 23:55 35.11676 -90.82523 228 ft 18 kts 181°
2026-05-03 23:55 35.11558 -90.82527 227 ft 15 kts 182°
2026-05-03 23:55 35.11464 -90.82531 227 ft 6 kts 174°
2026-05-03 23:56 35.11510 -90.82526 227 ft 20 kts
2026-05-03 23:56 35.11703 -90.82522 228 ft 32 kts
2026-05-03 23:56 35.11948 -90.82518 230 ft 36 kts
2026-05-03 23:56 35.12207 -90.82513 232 ft 37 kts
2026-05-03 23:57 35.12471 -90.82509 233 ft 36 kts
2026-05-03 23:57 35.12674 -90.82516 231 ft 14 kts 321°
2026-05-03 23:57 35.12686 -90.82539 231 ft 0 kts 269°
2026-05-04 00:01 35.12687 -90.82565 231 ft 5 kts 273°
2026-05-04 00:01 35.12683 -90.82626 231 ft 3 kts 229°
2026-05-04 00:01 35.12656 -90.82641 231 ft 0 kts 178°
2026-05-04 00:02 35.12603 -90.82643 232 ft 34 kts 181°
2026-05-04 00:02 35.12154 -90.82649 309 ft 81 kts 180°
2026-05-04 00:03 35.11542 -90.82651 619 ft 82 kts 180°
2026-05-04 00:03 35.11005 -90.82689 968 ft 77 kts 201°
2026-05-04 00:03 35.10586 -90.83103 1238 ft 83 kts 239°
2026-05-04 00:03 35.10476 -90.83823 1520 ft 92 kts 274°
2026-05-04 00:04 35.10731 -90.84553 1817 ft 101 kts 303°
2026-05-04 00:04 35.11309 -90.85075 2143 ft 106 kts 331°
2026-05-04 00:04 35.12014 -90.85277 2492 ft 107 kts 354°
2026-05-04 00:04 35.12744 -90.85062 2793 ft 112 kts 26°
2026-05-04 00:05 35.13362 -90.84456 3089 ft 115 kts 54°
2026-05-04 00:05 35.13650 -90.83555 3384 ft 113 kts 90°
2026-05-04 00:05 35.13627 -90.82610 3675 ft 113 kts 101°
2026-05-04 00:05 35.13507 -90.81642 3926 ft 119 kts 104°
2026-05-04 00:06 35.13490 -90.80607 4177 ft 126 kts 92°
2026-05-04 00:06 35.13553 -90.79550 4466 ft 127 kts 87°
2026-05-04 00:06 35.13607 -90.78484 4762 ft 127 kts 90°
2026-05-04 00:06 35.13617 -90.77395 5042 ft 129 kts 90°
2026-05-04 00:07 35.13618 -90.76269 5263 ft 136 kts 86°
2026-05-04 00:07 35.13691 -90.75104 5528 ft 138 kts 82°
2026-05-04 00:07 35.13771 -90.73910 5778 ft 142 kts 88°
2026-05-04 00:07 35.13733 -90.72700 6034 ft 144 kts 91°
2026-05-04 00:08 35.13715 -90.71388 5986 ft 170 kts 85°
2026-05-04 00:08 35.13790 -90.69883 5940 ft 185 kts 86°
2026-05-04 00:08 35.13840 -90.68263 5930 ft 194 kts 86°
2026-05-04 00:08 35.13888 -90.66600 5928 ft 200 kts 86°
2026-05-04 00:09 35.13937 -90.64884 5923 ft 201 kts 87°
2026-05-04 00:09 35.13986 -90.63191 5915 ft 200 kts 87°
2026-05-04 00:09 35.14036 -90.61490 5923 ft 198 kts 86°
2026-05-04 00:09 35.14082 -90.59813 5929 ft 199 kts 87°
2026-05-04 00:10 35.14125 -90.58131 5914 ft 198 kts 87°
2026-05-04 00:10 35.14177 -90.56458 5917 ft 198 kts 86°
2026-05-04 00:10 35.14229 -90.54784 5909 ft 197 kts 86°
2026-05-04 00:10 35.14278 -90.53119 5912 ft 196 kts 87°
2026-05-04 00:11 35.14331 -90.51437 5919 ft 195 kts 86°
2026-05-04 00:11 35.14371 -90.49784 5918 ft 195 kts 88°
2026-05-04 00:11 35.14404 -90.48135 5923 ft 194 kts 88°
2026-05-04 00:11 35.14436 -90.46495 5926 ft 193 kts 88°
2026-05-04 00:12 35.14467 -90.44868 5923 ft 190 kts 87°
2026-05-04 00:12 35.14496 -90.43276 5920 ft 186 kts 87°
2026-05-04 00:12 35.14519 -90.41716 5923 ft 183 kts 88°
2026-05-04 00:12 35.14543 -90.40158 5916 ft 181 kts 87°
2026-05-04 00:13 35.14566 -90.38654 5755 ft 175 kts 88°
2026-05-04 00:13 35.14599 -90.37187 5529 ft 171 kts 88°
2026-05-04 00:13 35.14638 -90.35751 5292 ft 168 kts 88°
2026-05-04 00:13 35.14683 -90.34335 5070 ft 166 kts 88°
2026-05-04 00:14 35.14737 -90.32937 4836 ft 165 kts 88°
2026-05-04 00:14 35.14793 -90.31516 4574 ft 171 kts 88°
2026-05-04 00:14 35.14854 -90.30049 4313 ft 175 kts 88°
2026-05-04 00:14 35.14924 -90.28560 4047 ft 176 kts 88°
2026-05-04 00:15 35.14997 -90.27067 3786 ft 174 kts 88°
2026-05-04 00:15 35.15076 -90.25623 3610 ft 168 kts 88°
2026-05-04 00:15 35.15157 -90.24226 3423 ft 165 kts 88°
2026-05-04 00:15 35.15244 -90.22829 3200 ft 164 kts 88°
2026-05-04 00:16 35.15336 -90.21440 3002 ft 162 kts 88°
2026-05-04 00:16 35.15427 -90.20135 2962 ft 149 kts 88°
2026-05-04 00:16 35.15520 -90.18920 2957 ft 136 kts 88°
2026-05-04 00:16 35.15608 -90.17799 2971 ft 135 kts 88°
2026-05-04 00:17 35.15691 -90.16612 2989 ft 147 kts 88°
2026-05-04 00:17 35.15773 -90.15318 2987 ft 157 kts 88°
2026-05-04 00:17 35.15858 -90.13951 2907 ft 169 kts 88°
2026-05-04 00:17 35.15951 -90.12483 2669 ft 175 kts 88°
2026-05-04 00:18 35.16055 -90.10988 2428 ft 178 kts 88°
2026-05-04 00:18 35.16162 -90.09526 2177 ft 166 kts 88°
2026-05-04 00:18 35.16268 -90.08187 1978 ft 147 kts 88°
2026-05-04 00:18 35.16369 -90.07059 1951 ft 130 kts 86°
2026-05-04 00:19 35.16466 -90.05891 1996 ft 148 kts 87°
2026-05-04 00:19 35.16561 -90.04606 1979 ft 149 kts 88°
2026-05-04 00:19 35.16663 -90.03374 1974 ft 143 kts 88°
2026-05-04 00:19 35.16536 -90.02232 2038 ft 131 kts 126°
2026-05-04 00:20 35.15939 -90.01437 2020 ft 131 kts 151°
2026-05-04 00:20 35.15163 -90.00770 1899 ft 139 kts 156°
2026-05-04 00:20 35.14320 -90.00176 1849 ft 138 kts 161°
2026-05-04 00:20 35.13481 -89.99663 1751 ft 130 kts 163°
2026-05-04 00:21 35.12714 -89.99217 1650 ft 112 kts 165°
2026-05-04 00:21 35.12018 -89.98864 1511 ft 105 kts 172°
2026-05-04 00:21 35.11318 -89.98764 1407 ft 102 kts 186°
2026-05-04 00:21 35.10598 -89.98813 1317 ft 104 kts 192°
2026-05-04 00:22 35.09863 -89.98864 1218 ft 103 kts 187°
2026-05-04 00:22 35.09159 -89.98864 1082 ft 98 kts 186°
2026-05-04 00:22 35.08521 -89.98832 990 ft 81 kts 182°
2026-05-04 00:22 35.07969 -89.98813 843 ft 79 kts 186°
2026-05-04 00:23 35.07415 -89.98812 729 ft 78 kts 186°
2026-05-04 00:23 35.06887 -89.98777 641 ft 73 kts 184°
2026-05-04 00:23 35.06378 -89.98792 598 ft 70 kts 187°
2026-05-04 00:23 35.05897 -89.98776 490 ft 69 kts 183°
2026-05-04 00:24 35.05405 -89.98762 416 ft 71 kts 185°
2026-05-04 00:24 35.04920 -89.98756 311 ft 69 kts 181°
2026-05-04 00:24 35.04488 -89.98749 278 ft 54 kts 179°
2026-05-04 00:24 35.04237 -89.98731 280 ft 17 kts 160°
2026-05-04 00:25 35.04188 -89.98617 282 ft 11 kts 84°
2026-05-04 00:25 35.04189 -89.98611 282 ft 0 kts 86°
2026-05-04 00:25 35.04186 -89.98561 283 ft 11 kts 91°
2026-05-04 00:25 35.04264 -89.98501 283 ft 16 kts
2026-05-04 00:26 35.04383 -89.98494 282 ft 14 kts
2026-05-04 00:26 35.04505 -89.98506 281 ft 18 kts 357°
2026-05-04 00:26 35.04629 -89.98516 280 ft 20 kts
2026-05-04 00:26 35.04784 -89.98511 278 ft 27 kts 360°
2026-05-04 00:27 35.05012 -89.98515 276 ft 37 kts 360°
2026-05-04 00:27 35.05279 -89.98518 270 ft 39 kts 359°
2026-05-04 00:27 35.05508 -89.98511 257 ft 31 kts 354°
2026-05-04 00:27 35.05662 -89.98499 255 ft 14 kts 28°
2026-05-04 00:28 35.05691 -89.98417 255 ft 12 kts 85°
2026-05-04 00:28 35.05689 -89.98279 256 ft 19 kts 94°
2026-05-04 00:28 35.05674 -89.98107 257 ft 18 kts 97°
2026-05-04 00:28 35.05639 -89.98023 258 ft 9 kts 208°
2026-05-04 00:29 35.05579 -89.98110 259 ft 13 kts 240°
2026-05-04 00:29 35.05571 -89.98174 260 ft 4 kts 258°
2026-05-04 00:29 35.05565 -89.98180 260 ft 0 kts 161°